ROA2037 MHTG-SVMI

Flight info

Callsign ROA2037
Flight time N/A
Altitude 34000
Route KARAK UA552 FALLA/N0469F350 UA552 SPP UP671 UTKIV UW52 PBL ALDAK1
Aircraft B738/M-SDE2E3FGHIRWXY/LB1

Departure

Time 2026-05-07 16:34
Airport Toncontín Airport (MHTG)

Arrival

Time N/A
Airport Maiquetía Simón Bolívar International Airport (SVMI)
Time Latitude Longitude Altitude Speed Heading
2026-05-07 16:22 14.06062 -87.21878 3269 ft 0 kts 289°
2026-05-07 16:25 14.06056 -87.21858 3269 ft 3 kts 289°
2026-05-07 16:25 14.06049 -87.21839 3266 ft 3 kts 282°
2026-05-07 16:25 14.06051 -87.21823 3265 ft 4 kts 211°
2026-05-07 16:25 14.06071 -87.21814 3266 ft 3 kts 198°
2026-05-07 16:26 14.06082 -87.21810 3264 ft 0 kts 198°
2026-05-07 16:28 14.06065 -87.21816 3267 ft 6 kts 198°
2026-05-07 16:28 14.06033 -87.21827 3269 ft 6 kts 198°
2026-05-07 16:28 14.05978 -87.21846 3273 ft 9 kts 199°
2026-05-07 16:29 14.05902 -87.21873 3279 ft 9 kts 199°
2026-05-07 16:29 14.05851 -87.21891 3282 ft 11 kts 199°
2026-05-07 16:29 14.05767 -87.21921 3285 ft 17 kts 199°
2026-05-07 16:29 14.05673 -87.21954 3289 ft 17 kts 199°
2026-05-07 16:30 14.05603 -87.21979 3292 ft 13 kts 199°
2026-05-07 16:30 14.05546 -87.21999 3295 ft 9 kts 200°
2026-05-07 16:30 14.05509 -87.22005 3297 ft 0 kts 174°
2026-05-07 16:30 14.05480 -87.22002 3298 ft 8 kts 174°
2026-05-07 16:31 14.05397 -87.21993 3301 ft 16 kts 174°
2026-05-07 16:31 14.05329 -87.21993 3302 ft 7 kts 193°
2026-05-07 16:31 14.05262 -87.22008 3304 ft 9 kts 193°
2026-05-07 16:31 14.05202 -87.22005 3305 ft 11 kts 181°
2026-05-07 16:32 14.05182 -87.22035 3307 ft 6 kts 328°
2026-05-07 16:32 14.05198 -87.22033 3306 ft 0 kts 18°
2026-05-07 16:33 14.05212 -87.22028 3306 ft 17 kts 18°
2026-05-07 16:34 14.05582 -87.21898 3292 ft 94 kts 19°
2026-05-07 16:34 14.06417 -87.21606 3281 ft 155 kts 20°
2026-05-07 16:34 14.07461 -87.21251 3842 ft 163 kts 19°
2026-05-07 16:34 14.08663 -87.21068 4238 ft 192 kts 359°
2026-05-07 16:35 14.10077 -87.21178 4568 ft 215 kts
2026-05-07 16:35 14.11618 -87.21010 4926 ft 229 kts
2026-05-07 16:35 14.13290 -87.20868 5079 ft 253 kts
2026-05-07 16:35 14.15120 -87.20882 5345 ft 273 kts 359°
2026-05-07 16:36 14.17051 -87.20935 5972 ft 281 kts
2026-05-07 16:36 14.19001 -87.20955 6878 ft 279 kts
2026-05-07 16:36 14.20928 -87.20766 7558 ft 284 kts
2026-05-07 16:36 14.22904 -87.20517 8226 ft 290 kts
2026-05-07 16:37 14.24919 -87.20275 8946 ft 293 kts
2026-05-07 16:37 14.26956 -87.20023 9681 ft 295 kts
2026-05-07 16:37 14.29014 -87.19766 10320 ft 303 kts
2026-05-07 16:37 14.31184 -87.19475 10492 ft 325 kts 14°
2026-05-07 16:38 14.33310 -87.18547 10623 ft 342 kts 39°
2026-05-07 16:38 14.34867 -87.16668 10816 ft 353 kts 65°
2026-05-07 16:38 14.35798 -87.14307 11285 ft 358 kts 71°
2026-05-07 16:38 14.36664 -87.11891 11869 ft 361 kts 71°
2026-05-07 16:39 14.37561 -87.09442 12325 ft 368 kts 70°
2026-05-07 16:39 14.38485 -87.06972 12961 ft 369 kts 71°
2026-05-07 16:39 14.39051 -87.04401 13518 ft 370 kts 90°
2026-05-07 16:39 14.38660 -87.01789 14070 ft 371 kts 109°
2026-05-07 16:40 14.37486 -86.99419 14578 ft 374 kts 126°
2026-05-07 16:40 14.35662 -86.97501 15071 ft 377 kts 140°
2026-05-07 16:40 14.33599 -86.95805 15565 ft 381 kts 141°
2026-05-07 16:40 14.31517 -86.94145 16045 ft 383 kts 141°
2026-05-07 16:41 14.29410 -86.92461 16577 ft 384 kts 141°
2026-05-07 16:41 14.27290 -86.90748 16993 ft 390 kts 141°
2026-05-07 16:41 14.25154 -86.89005 17427 ft 393 kts 140°
2026-05-07 16:41 14.23007 -86.87243 17906 ft 395 kts 140°
2026-05-07 16:42 14.20849 -86.85470 18383 ft 398 kts 140°
2026-05-07 16:42 14.18671 -86.83703 18806 ft 399 kts 143°
2026-05-07 16:42 14.16191 -86.82406 19223 ft 404 kts 162°
2026-05-07 16:42 14.13421 -86.81813 19611 ft 408 kts 168°
2026-05-07 16:43 14.10609 -86.81332 19942 ft 411 kts 167°
2026-05-07 16:43 14.07913 -86.80394 20247 ft 410 kts 147°
2026-05-07 16:43 14.05739 -86.78525 20611 ft 408 kts 129°
2026-05-07 16:43 14.04222 -86.76064 20978 ft 408 kts 114°
2026-05-07 16:44 14.03381 -86.73280 21327 ft 409 kts 98°
2026-05-07 16:44 14.03253 -86.70345 21705 ft 411 kts 90°
2026-05-07 16:44 14.03283 -86.67398 22043 ft 413 kts 89°
2026-05-07 16:44 14.03345 -86.64430 22374 ft 415 kts 89°
2026-05-07 16:45 14.03411 -86.61448 22653 ft 418 kts 89°
2026-05-07 16:45 14.03467 -86.58490 22993 ft 419 kts 89°
2026-05-07 16:45 14.03514 -86.55485 23329 ft 420 kts 89°
2026-05-07 16:45 14.03551 -86.52468 23631 ft 422 kts 90°
2026-05-07 16:46 14.03583 -86.49438 23890 ft 424 kts 90°
2026-05-07 16:46 14.03611 -86.46398 24142 ft 425 kts 90°
2026-05-07 16:46 14.03637 -86.43349 24408 ft 426 kts 90°
2026-05-07 16:46 14.03663 -86.40286 24677 ft 428 kts 90°
2026-05-07 16:47 14.03687 -86.37213 24914 ft 429 kts 90°
2026-05-07 16:47 14.03712 -86.34135 25156 ft 431 kts 90°
2026-05-07 16:47 14.03736 -86.31038 25401 ft 432 kts 90°
2026-05-07 16:47 14.03761 -86.27938 25649 ft 433 kts 90°
2026-05-07 16:48 14.03785 -86.24874 25847 ft 435 kts 90°
2026-05-07 16:48 14.03808 -86.21745 26078 ft 436 kts 90°
2026-05-07 16:48 14.03832 -86.18621 26318 ft 437 kts 90°
2026-05-07 16:48 14.03855 -86.15482 26514 ft 439 kts 90°
2026-05-07 16:49 14.03878 -86.12327 26723 ft 441 kts 90°
2026-05-07 16:49 14.03900 -86.09170 26953 ft 442 kts 90°
2026-05-07 16:49 14.03922 -86.05998 27184 ft 443 kts 90°
2026-05-07 16:49 14.03944 -86.02814 27402 ft 444 kts 90°
2026-05-07 16:50 14.03966 -85.99619 27611 ft 446 kts 90°
2026-05-07 16:50 14.03987 -85.96462 27800 ft 447 kts 90°
2026-05-07 16:50 14.04008 -85.93217 28033 ft 448 kts 90°
2026-05-07 16:50 14.04028 -85.90047 28219 ft 450 kts 90°
2026-05-07 16:51 14.04048 -85.86823 28412 ft 451 kts 90°
2026-05-07 16:51 14.04068 -85.83590 28608 ft 452 kts 90°
2026-05-07 16:51 14.04087 -85.80349 28798 ft 454 kts 90°
2026-05-07 16:51 14.04106 -85.77082 28979 ft 455 kts 90°
2026-05-07 16:52 14.04124 -85.73820 29183 ft 456 kts 90°
2026-05-07 16:52 14.04142 -85.70554 29449 ft 456 kts 90°
2026-05-07 16:52 14.04160 -85.67299 29759 ft 454 kts 90°
2026-05-07 16:52 14.04178 -85.64053 30059 ft 452 kts 90°
2026-05-07 16:53 14.04194 -85.60817 30291 ft 452 kts 90°
2026-05-07 16:53 14.04211 -85.57571 30483 ft 453 kts 90°
2026-05-07 16:53 14.04227 -85.54327 30695 ft 453 kts 90°
2026-05-07 16:53 14.04242 -85.51082 30909 ft 453 kts 90°
2026-05-07 16:54 14.04257 -85.47836 31101 ft 453 kts 90°
2026-05-07 16:54 14.04272 -85.44594 31329 ft 453 kts 90°
2026-05-07 16:54 14.04286 -85.41390 31531 ft 453 kts 90°
2026-05-07 16:54 14.04300 -85.38148 31744 ft 453 kts 90°
2026-05-07 16:55 14.04318 -85.34903 31968 ft 453 kts 89°
2026-05-07 16:55 14.04341 -85.31657 32207 ft 453 kts 89°
2026-05-07 16:55 14.04365 -85.28414 32448 ft 452 kts 89°
2026-05-07 16:55 14.04389 -85.25172 32666 ft 453 kts 89°
2026-05-07 16:56 14.04412 -85.21931 32888 ft 453 kts 89°
2026-05-07 16:56 14.04435 -85.18690 33124 ft 453 kts 89°
2026-05-07 16:56 14.04477 -85.12208 33616 ft 452 kts 89°
2026-05-07 16:57 14.04497 -85.08969 33825 ft 453 kts 89°
2026-05-07 16:57 14.04517 -85.05724 34055 ft 452 kts 89°
2026-05-07 16:57 14.04536 -85.02485 34237 ft 453 kts 89°
2026-05-07 16:57 14.04555 -84.99272 34339 ft 456 kts 89°
2026-05-07 16:58 14.04574 -84.96007 34523 ft 456 kts 89°
2026-05-07 16:58 14.04592 -84.92745 34770 ft 454 kts 89°
2026-05-07 16:58 14.04610 -84.89501 34991 ft 453 kts 89°
2026-05-07 16:58 14.04627 -84.86239 34971 ft 457 kts 89°
2026-05-07 16:59 14.04661 -84.79705 34977 ft 455 kts 89°
2026-05-07 16:59 14.04693 -84.73208 34990 ft 452 kts 89°
2026-05-07 17:00 14.04712 -84.66744 34971 ft 451 kts 89°
2026-05-07 17:00 14.04712 -84.60296 34977 ft 449 kts 89°
2026-05-07 17:01 14.04713 -84.53859 34976 ft 449 kts 89°
2026-05-07 17:01 14.04714 -84.47418 34979 ft 450 kts 89°
2026-05-07 17:02 14.04715 -84.40995 34978 ft 452 kts 89°
2026-05-07 17:02 14.04714 -84.34513 34974 ft 453 kts 89°
2026-05-07 17:03 14.04711 -84.28006 34967 ft 455 kts 89°
2026-05-07 17:03 14.04706 -84.21469 34972 ft 457 kts 89°
2026-05-07 17:04 14.04700 -84.14929 34960 ft 457 kts 89°
2026-05-07 17:04 14.04692 -84.08377 34967 ft 457 kts 89°
2026-05-07 17:05 14.04682 -84.01837 34958 ft 456 kts 89°
2026-05-07 17:05 14.04671 -83.95305 34957 ft 455 kts 89°
2026-05-07 17:06 14.04657 -83.88795 34956 ft 454 kts 89°
2026-05-07 17:06 14.04642 -83.82298 34954 ft 453 kts 89°
2026-05-07 17:07 14.04625 -83.75816 34960 ft 452 kts 89°
2026-05-07 17:07 14.04608 -83.69367 34964 ft 452 kts 89°
2026-05-07 17:08 14.04588 -83.62891 34957 ft 452 kts 89°
2026-05-07 17:08 14.04566 -83.56414 34949 ft 452 kts 89°
2026-05-07 17:09 14.04543 -83.49935 34950 ft 452 kts 89°
2026-05-07 17:09 14.04508 -83.43456 34971 ft 453 kts 92°
2026-05-07 17:10 14.04035 -83.40250 34964 ft 455 kts 105°
2026-05-07 17:10 14.02850 -83.37228 34968 ft 457 kts 117°
2026-05-07 17:10 14.01070 -83.34510 34966 ft 460 kts 128°
2026-05-07 17:10 13.98961 -83.32026 34976 ft 460 kts 130°
2026-05-07 17:11 13.94709 -83.27141 34966 ft 461 kts 130°
2026-05-07 17:11 13.90447 -83.22194 34963 ft 462 kts 130°
2026-05-07 17:12 13.86213 -83.17216 34971 ft 462 kts 129°
2026-05-07 17:12 13.81981 -83.12219 34984 ft 462 kts 129°
2026-05-07 17:13 13.77750 -83.07226 34985 ft 463 kts 129°
2026-05-07 17:13 13.73524 -83.02244 34999 ft 462 kts 129°
2026-05-07 17:14 13.69298 -82.97266 34984 ft 461 kts 130°
2026-05-07 17:14 13.65797 -82.93146 34992 ft 460 kts 129°
2026-05-07 17:15 13.61593 -82.88199 34978 ft 458 kts 129°
2026-05-07 17:15 13.57406 -82.83275 34985 ft 457 kts 129°
2026-05-07 17:16 13.53225 -82.78361 34982 ft 456 kts 129°
2026-05-07 17:16 13.49085 -82.73497 34988 ft 455 kts 129°
2026-05-07 17:17 13.44915 -82.68599 34985 ft 454 kts 129°
2026-05-07 17:17 13.40732 -82.63740 34984 ft 454 kts 130°
2026-05-07 17:18 13.36491 -82.58934 34992 ft 454 kts 130°
2026-05-07 17:18 13.32245 -82.54134 34984 ft 454 kts 130°
2026-05-07 17:19 13.28006 -82.49327 34981 ft 454 kts 130°
2026-05-07 17:19 13.23769 -82.44518 34979 ft 454 kts 130°
2026-05-07 17:20 13.19528 -82.39704 34980 ft 455 kts 130°
2026-05-07 17:20 13.15284 -82.34890 34981 ft 455 kts 130°
2026-05-07 17:21 13.11026 -82.30063 34974 ft 456 kts 130°
2026-05-07 17:21 13.06792 -82.25266 34975 ft 456 kts 130°
2026-05-07 17:22 13.02530 -82.20440 34979 ft 457 kts 130°
2026-05-07 17:22 12.98262 -82.15610 34987 ft 457 kts 130°
2026-05-07 17:23 12.93992 -82.10780 34970 ft 456 kts 130°
2026-05-07 17:23 12.89731 -82.05963 34973 ft 455 kts 130°
2026-05-07 17:24 12.85479 -82.01159 34975 ft 454 kts 130°
2026-05-07 17:24 12.81267 -81.96401 34970 ft 453 kts 130°
2026-05-07 17:25 12.77032 -81.91621 34975 ft 453 kts 130°
2026-05-07 17:25 12.72793 -81.86838 34972 ft 452 kts 130°
2026-05-07 17:26 12.68562 -81.82066 34976 ft 452 kts 130°
2026-05-07 17:26 12.64325 -81.77289 34992 ft 452 kts 130°
2026-05-07 17:27 12.60175 -81.72449 34980 ft 451 kts 123°
2026-05-07 17:27 12.57311 -81.66833 34992 ft 448 kts 107°
2026-05-07 17:28 12.55692 -81.60679 34989 ft 448 kts 103°
2026-05-07 17:28 12.54178 -81.54490 34972 ft 448 kts 103°
2026-05-07 17:29 12.52637 -81.48307 34964 ft 449 kts 103°
2026-05-07 17:29 12.51068 -81.42120 34971 ft 449 kts 103°
2026-05-07 17:30 12.49488 -81.35931 34970 ft 450 kts 104°
2026-05-07 17:30 12.47905 -81.29744 34969 ft 450 kts 103°
2026-05-07 17:31 12.46322 -81.23558 34969 ft 450 kts 104°
2026-05-07 17:31 12.44746 -81.17405 34960 ft 450 kts 104°
2026-05-07 17:32 12.43161 -81.11222 34968 ft 449 kts 103°
2026-05-07 17:32 12.41574 -81.05036 34957 ft 449 kts 103°
2026-05-07 17:33 12.39983 -80.98844 34965 ft 449 kts 104°
2026-05-07 17:33 12.38394 -80.92663 34961 ft 449 kts 104°
2026-05-07 17:34 12.36815 -80.86531 34958 ft 449 kts 104°
2026-05-07 17:34 12.35224 -80.80353 34968 ft 449 kts 103°
2026-05-07 17:35 12.33630 -80.74173 34953 ft 449 kts 104°
2026-05-07 17:35 12.32036 -80.67998 34967 ft 449 kts 103°
2026-05-07 17:36 12.30440 -80.61822 34948 ft 449 kts 104°
2026-05-07 17:36 12.28844 -80.55650 34961 ft 449 kts 103°
2026-05-07 17:37 12.27240 -80.49457 34958 ft 449 kts 103°
2026-05-07 17:37 12.25649 -80.43319 34944 ft 450 kts 103°
2026-05-07 17:38 12.24046 -80.37137 34963 ft 450 kts 103°
2026-05-07 17:38 12.22440 -80.30953 34945 ft 450 kts 104°
2026-05-07 17:39 12.20831 -80.24763 34960 ft 450 kts 103°
2026-05-07 17:39 12.19221 -80.18576 34946 ft 450 kts 104°
2026-05-07 17:40 12.17611 -80.12392 34949 ft 450 kts 104°
2026-05-07 17:40 12.16009 -80.06247 34955 ft 451 kts 104°
2026-05-07 17:41 12.14394 -80.00060 34949 ft 451 kts 104°
2026-05-07 17:41 12.12778 -79.93871 34950 ft 451 kts 103°
2026-05-07 17:42 12.11159 -79.87680 34941 ft 451 kts 104°
2026-05-07 17:42 12.09538 -79.81486 34947 ft 451 kts 103°
2026-05-07 17:43 12.07914 -79.75289 34945 ft 451 kts 104°
2026-05-07 17:43 12.06292 -79.69103 34954 ft 451 kts 103°
2026-05-07 17:44 12.04669 -79.62918 34940 ft 451 kts 103°
2026-05-07 17:44 12.03055 -79.56775 34942 ft 451 kts 103°
2026-05-07 17:45 12.01428 -79.50588 34942 ft 450 kts 104°
2026-05-07 17:45 11.99802 -79.44410 34938 ft 450 kts 104°
2026-05-07 17:46 11.98174 -79.38229 34944 ft 450 kts 103°
2026-05-07 17:46 11.96544 -79.32048 34936 ft 450 kts 104°
2026-05-07 17:47 11.94915 -79.25878 34949 ft 450 kts 104°
2026-05-07 17:47 11.93285 -79.19710 34936 ft 450 kts 103°
2026-05-07 17:48 11.91655 -79.13545 34938 ft 450 kts 103°
2026-05-07 17:48 11.90035 -79.07424 34940 ft 450 kts 104°
2026-05-07 17:49 11.88400 -79.01256 34935 ft 450 kts 104°
2026-05-07 17:49 11.86766 -78.95095 34939 ft 450 kts 103°
2026-05-07 17:50 11.85129 -78.88925 34931 ft 450 kts 104°
2026-05-07 17:50 11.83490 -78.82756 34935 ft 450 kts 103°
2026-05-07 17:51 11.81852 -78.76590 34923 ft 450 kts 104°
2026-05-07 17:51 11.80210 -78.70420 34929 ft 450 kts 104°
2026-05-07 17:52 11.78598 -78.64239 34925 ft 450 kts 103°
2026-05-07 17:52 11.77022 -78.58093 34928 ft 451 kts 103°
2026-05-07 17:53 11.75433 -78.51900 34934 ft 451 kts 103°
2026-05-07 17:53 11.73839 -78.45710 34925 ft 451 kts 103°
2026-05-07 17:54 11.72239 -78.39510 34937 ft 451 kts 103°
2026-05-07 17:54 11.70640 -78.33319 34927 ft 451 kts 103°
2026-05-07 17:55 11.69051 -78.27174 34924 ft 451 kts 103°
2026-05-07 17:55 11.67451 -78.20993 34924 ft 451 kts 103°
2026-05-07 17:56 11.65850 -78.14814 34928 ft 450 kts 103°
2026-05-07 17:56 11.64248 -78.08638 34932 ft 450 kts 103°
2026-05-07 17:57 11.62915 -78.03499 34920 ft 450 kts 103°
2026-05-07 17:57 11.61040 -77.96279 34933 ft 450 kts 103°
2026-05-07 17:58 11.59435 -77.90106 34923 ft 450 kts 103°
2026-05-07 17:58 11.57828 -77.83934 34928 ft 450 kts 103°
2026-05-07 17:59 11.56219 -77.77757 34923 ft 450 kts 103°
2026-05-07 17:59 11.54619 -77.71620 34924 ft 451 kts 103°
2026-05-07 18:00 11.52997 -77.65402 34927 ft 451 kts 103°
2026-05-07 18:00 11.51382 -77.59221 34920 ft 451 kts 103°
2026-05-07 18:01 11.49776 -77.53075 34928 ft 451 kts 103°
2026-05-07 18:01 11.48156 -77.46885 34916 ft 452 kts 103°
2026-05-07 18:02 11.46016 -77.37544 34917 ft 451 kts 98°
2026-05-07 18:03 11.45087 -77.31225 34915 ft 450 kts 97°
2026-05-07 18:03 11.44181 -77.24895 34914 ft 451 kts 97°
2026-05-07 18:04 11.43400 -77.19650 34907 ft 451 kts 97°
2026-05-07 18:04 11.42274 -77.12303 34910 ft 451 kts 97°
2026-05-07 18:05 11.41454 -77.07009 34913 ft 451 kts 97°
2026-05-07 18:05 11.40472 -77.00681 34911 ft 452 kts 97°
2026-05-07 18:06 11.39492 -76.94361 34912 ft 452 kts 97°
2026-05-07 18:06 11.38517 -76.88070 34910 ft 452 kts 97°
2026-05-07 18:07 11.37535 -76.81741 34903 ft 452 kts 97°
2026-05-07 18:07 11.36549 -76.75410 34913 ft 452 kts 98°
2026-05-07 18:08 11.35559 -76.69072 34909 ft 453 kts 97°
2026-05-07 18:08 11.34570 -76.62729 34904 ft 453 kts 97°
2026-05-07 18:09 11.33579 -76.56381 34911 ft 454 kts 98°
2026-05-07 18:09 11.32584 -76.50030 34907 ft 454 kts 97°
2026-05-07 18:10 11.31588 -76.43678 34897 ft 454 kts 97°
2026-05-07 18:10 11.30590 -76.37319 34906 ft 454 kts 97°
2026-05-07 18:11 11.29591 -76.30950 34905 ft 455 kts 97°
2026-05-07 18:11 11.28589 -76.24593 34900 ft 455 kts 98°
2026-05-07 18:12 11.27591 -76.18278 34902 ft 455 kts 98°
2026-05-07 18:12 11.26587 -76.11918 34903 ft 455 kts 97°
2026-05-07 18:13 11.25581 -76.05548 34890 ft 455 kts 97°
2026-05-07 18:13 11.24574 -75.99187 34898 ft 455 kts 97°
2026-05-07 18:14 11.23564 -75.92825 34897 ft 455 kts 97°
2026-05-07 18:14 11.22554 -75.86469 34893 ft 455 kts 98°
2026-05-07 18:15 11.21545 -75.80116 34899 ft 454 kts 98°
2026-05-07 18:15 11.20534 -75.73756 34896 ft 455 kts 97°
2026-05-07 18:16 11.19519 -75.67393 34894 ft 455 kts 97°
2026-05-07 18:16 11.18502 -75.61027 34894 ft 455 kts 97°
2026-05-07 18:17 11.17488 -75.54697 34891 ft 456 kts 97°
2026-05-07 18:17 11.16469 -75.48329 34886 ft 456 kts 97°
2026-05-07 18:18 11.15448 -75.41951 34890 ft 456 kts 98°
2026-05-07 18:18 11.14423 -75.35569 34890 ft 457 kts 98°
2026-05-07 18:19 11.13395 -75.29174 34889 ft 457 kts 98°
2026-05-07 18:19 11.12366 -75.22782 34888 ft 458 kts 98°
2026-05-07 18:20 11.11332 -75.16373 34889 ft 458 kts 98°
2026-05-07 18:20 11.10297 -75.09963 34889 ft 459 kts 98°
2026-05-07 18:21 11.09261 -75.03553 34882 ft 459 kts 98°
2026-05-07 18:21 11.08223 -74.97141 34888 ft 459 kts 98°
2026-05-07 18:22 11.07182 -74.90721 34886 ft 459 kts 98°
2026-05-07 18:22 11.06148 -74.84350 34884 ft 459 kts 98°
2026-05-07 18:23 11.05105 -74.77934 34882 ft 459 kts 98°
2026-05-07 18:23 11.04061 -74.71520 34884 ft 459 kts 98°
2026-05-07 18:24 11.03030 -74.65199 34883 ft 459 kts 98°
2026-05-07 18:24 11.01986 -74.58799 34880 ft 459 kts 98°
2026-05-07 18:25 11.00938 -74.52388 34880 ft 459 kts 98°
2026-05-07 18:25 10.99895 -74.46013 34880 ft 458 kts 98°
2026-05-07 18:26 10.98844 -74.39600 34881 ft 458 kts 98°
2026-05-07 18:26 10.97795 -74.33201 34888 ft 458 kts 98°
2026-05-07 18:27 10.96748 -74.26830 34885 ft 460 kts 98°
2026-05-07 18:27 10.95734 -74.20403 34893 ft 459 kts 97°
2026-05-07 18:28 10.94843 -74.13971 34903 ft 459 kts 96°
2026-05-07 18:28 10.93966 -74.07534 34897 ft 459 kts 96°
2026-05-07 18:29 10.93072 -74.01092 34970 ft 459 kts 96°
2026-05-07 18:29 10.92167 -73.94673 34976 ft 458 kts 96°
2026-05-07 18:30 10.91273 -73.88291 35022 ft 457 kts 96°
2026-05-07 18:30 10.90370 -73.81882 35031 ft 457 kts 96°
2026-05-07 18:31 10.89461 -73.75474 35074 ft 456 kts 95°
2026-05-07 18:31 10.88554 -73.69084 35063 ft 457 kts 95°
2026-05-07 18:32 10.87645 -73.62683 35068 ft 457 kts 95°
2026-05-07 18:32 10.86738 -73.56283 35078 ft 457 kts 95°
2026-05-07 18:33 10.85831 -73.49882 35047 ft 457 kts 96°
2026-05-07 18:33 10.84924 -73.43528 35040 ft 456 kts 96°
2026-05-07 18:34 10.84014 -73.37129 35043 ft 458 kts 96°
2026-05-07 18:34 10.83095 -73.30704 34979 ft 459 kts 96°
2026-05-07 18:35 10.82174 -73.24262 34987 ft 460 kts 96°
2026-05-07 18:35 10.81246 -73.17790 34942 ft 461 kts 96°
2026-05-07 18:36 10.80320 -73.11335 34943 ft 461 kts 97°
2026-05-07 18:36 10.79398 -73.04917 34935 ft 461 kts 97°
2026-05-07 18:37 10.78467 -72.98451 34925 ft 462 kts 97°
2026-05-07 18:37 10.77536 -72.91988 34929 ft 461 kts 96°
2026-05-07 18:38 10.76604 -72.85528 34933 ft 461 kts 96°
2026-05-07 18:38 10.75674 -72.79090 34936 ft 462 kts 96°
2026-05-07 18:39 10.74739 -72.72631 34944 ft 461 kts 96°
2026-05-07 18:39 10.74051 -72.66136 34945 ft 460 kts 90°
2026-05-07 18:40 10.73880 -72.59638 34941 ft 460 kts 89°
2026-05-07 18:40 10.73757 -72.53170 34921 ft 460 kts 89°
2026-05-07 18:41 10.73587 -72.46659 34925 ft 460 kts 90°
2026-05-07 18:41 10.73389 -72.40152 34917 ft 460 kts 90°
2026-05-07 18:42 10.73181 -72.33651 34902 ft 460 kts 90°
2026-05-07 18:42 10.72973 -72.27187 34903 ft 460 kts 90°
2026-05-07 18:43 10.72763 -72.20674 34891 ft 460 kts 90°
2026-05-07 18:43 10.72553 -72.14165 34890 ft 461 kts 90°
2026-05-07 18:44 10.72342 -72.07644 34879 ft 461 kts 90°
2026-05-07 18:44 10.72129 -72.01130 34880 ft 461 kts 90°
2026-05-07 18:45 10.71914 -71.94610 34885 ft 461 kts 90°
2026-05-07 18:45 10.71698 -71.88083 34878 ft 462 kts 90°
2026-05-07 18:46 10.71481 -71.81561 34883 ft 462 kts 90°
2026-05-07 18:46 10.71262 -71.75019 34879 ft 462 kts 90°
2026-05-07 18:47 10.71041 -71.68487 34880 ft 462 kts 90°
2026-05-07 18:47 10.70819 -71.61951 34879 ft 463 kts 90°
2026-05-07 18:48 10.70598 -71.55459 34878 ft 463 kts 90°
2026-05-07 18:48 10.70373 -71.48916 34876 ft 463 kts 90°
2026-05-07 18:49 10.70146 -71.42368 34870 ft 463 kts 90°
2026-05-07 18:49 10.69957 -71.36916 34874 ft 463 kts 90°
2026-05-07 18:50 10.69728 -71.30371 34879 ft 463 kts 90°
2026-05-07 18:50 10.69498 -71.23823 34878 ft 463 kts 90°
2026-05-07 18:51 10.69266 -71.17271 34878 ft 464 kts 90°
2026-05-07 18:51 10.69033 -71.10716 34875 ft 464 kts 90°
2026-05-07 18:52 10.68798 -71.04157 34877 ft 464 kts 90°
2026-05-07 18:52 10.68449 -70.97593 34879 ft 464 kts 91°
2026-05-07 18:53 10.68025 -70.91041 34878 ft 464 kts 91°
2026-05-07 18:53 10.67613 -70.84535 34888 ft 464 kts 91°
2026-05-07 18:54 10.67210 -70.77975 34878 ft 464 kts 91°
2026-05-07 18:54 10.66811 -70.71425 34879 ft 464 kts 91°
2026-05-07 18:55 10.66411 -70.64873 34895 ft 464 kts 91°
2026-05-07 18:55 10.66008 -70.58313 34891 ft 465 kts 91°
2026-05-07 18:56 10.65604 -70.51754 34894 ft 465 kts 91°
2026-05-07 18:56 10.65198 -70.45185 34899 ft 465 kts 91°
2026-05-07 18:57 10.64791 -70.38657 34892 ft 466 kts 91°
2026-05-07 18:57 10.64364 -70.32074 34899 ft 466 kts 91°
2026-05-07 18:58 10.63933 -70.25500 34896 ft 467 kts 91°
2026-05-07 18:58 10.63502 -70.18913 34887 ft 467 kts 90°
2026-05-07 18:59 10.63069 -70.12321 34889 ft 467 kts 90°
2026-05-07 18:59 10.62638 -70.05725 34897 ft 467 kts 91°
2026-05-07 19:00 10.62203 -69.99128 34902 ft 468 kts 90°
2026-05-07 19:00 10.61771 -69.92578 34918 ft 468 kts 92°
2026-05-07 19:01 10.61330 -69.85982 34914 ft 468 kts 91°
2026-05-07 19:01 10.60892 -69.79370 34920 ft 468 kts 90°
2026-05-07 19:02 10.60452 -69.72759 34919 ft 469 kts 92°
2026-05-07 19:02 10.59982 -69.66132 34928 ft 470 kts 92°
2026-05-07 19:03 10.59458 -69.59508 34925 ft 471 kts 93°
2026-05-07 19:03 10.58925 -69.52861 34923 ft 472 kts 91°
2026-05-07 19:04 10.58405 -69.46206 34932 ft 473 kts 94°
2026-05-07 19:04 10.57883 -69.39565 34927 ft 474 kts 92°
2026-05-07 19:05 10.57361 -69.32878 34925 ft 475 kts 94°
2026-05-07 19:05 10.56829 -69.26177 34924 ft 476 kts 92°
2026-05-07 19:06 10.56298 -69.19473 34936 ft 476 kts 92°
2026-05-07 19:06 10.55764 -69.12700 34027 ft 483 kts 93°
2026-05-07 19:06 10.55492 -69.09288 33283 ft 484 kts 93°
2026-05-07 19:07 10.55220 -69.05878 32553 ft 485 kts 93°
2026-05-07 19:07 10.54947 -69.02457 31801 ft 486 kts 93°
2026-05-07 19:07 10.54674 -68.99039 31281 ft 482 kts 93°
2026-05-07 19:07 10.54406 -68.95688 30731 ft 479 kts 93°
2026-05-07 19:08 10.54154 -68.92316 30107 ft 478 kts 92°
2026-05-07 19:08 10.53925 -68.88953 29505 ft 475 kts 92°
2026-05-07 19:08 10.53707 -68.85616 28929 ft 471 kts 92°
2026-05-07 19:08 10.53493 -68.82314 28381 ft 466 kts 92°
2026-05-07 19:09 10.53278 -68.79040 27849 ft 462 kts 92°
2026-05-07 19:09 10.53064 -68.75802 27327 ft 458 kts 92°
2026-05-07 19:09 10.52848 -68.72586 26812 ft 454 kts 93°
2026-05-07 19:09 10.52633 -68.69398 26302 ft 450 kts 93°
2026-05-07 19:10 10.52418 -68.66238 25791 ft 446 kts 92°
2026-05-07 19:10 10.52206 -68.63100 25276 ft 443 kts 93°
2026-05-07 19:10 10.51996 -68.60023 24762 ft 440 kts 93°
2026-05-07 19:10 10.51786 -68.56921 24258 ft 438 kts 94°
2026-05-07 19:11 10.51576 -68.53846 23752 ft 435 kts 94°
2026-05-07 19:11 10.51367 -68.50789 23194 ft 433 kts 93°
2026-05-07 19:11 10.51158 -68.47747 22653 ft 429 kts 94°
2026-05-07 19:11 10.50952 -68.44746 22142 ft 424 kts 94°
2026-05-07 19:12 10.50748 -68.41764 21646 ft 420 kts 93°
2026-05-07 19:12 10.50545 -68.38817 21157 ft 415 kts 93°
2026-05-07 19:12 10.50345 -68.35902 20677 ft 411 kts 93°
2026-05-07 19:12 10.50147 -68.33022 20203 ft 407 kts 93°
2026-05-07 19:13 10.49950 -68.30169 19730 ft 403 kts 94°
2026-05-07 19:13 10.49757 -68.27379 19268 ft 399 kts 93°
2026-05-07 19:13 10.49564 -68.24579 18796 ft 396 kts 93°
2026-05-07 19:13 10.49372 -68.21803 18329 ft 392 kts 94°
2026-05-07 19:14 10.49181 -68.19057 17810 ft 384 kts 94°
2026-05-07 19:14 10.48997 -68.16393 17321 ft 373 kts 94°
2026-05-07 19:14 10.48817 -68.13798 16884 ft 364 kts 93°
2026-05-07 19:14 10.48639 -68.11241 16462 ft 361 kts 94°
2026-05-07 19:15 10.48466 -68.08711 16030 ft 357 kts 92°
2026-05-07 19:15 10.48678 -68.06226 15710 ft 350 kts 77°
2026-05-07 19:15 10.49262 -68.03841 15304 ft 348 kts 76°
2026-05-07 19:15 10.49854 -68.01464 14900 ft 347 kts 76°
2026-05-07 19:16 10.50440 -67.99089 14477 ft 345 kts 76°
2026-05-07 19:16 10.51013 -67.96734 14054 ft 342 kts 76°
2026-05-07 19:16 10.51578 -67.94392 13625 ft 340 kts 76°
2026-05-07 19:16 10.52133 -67.92068 13161 ft 338 kts 77°
2026-05-07 19:17 10.52677 -67.89786 12723 ft 335 kts 77°
2026-05-07 19:17 10.53221 -67.87493 12294 ft 333 kts 77°
2026-05-07 19:17 10.53761 -67.85220 11904 ft 329 kts 77°
2026-05-07 19:17 10.54295 -67.82965 11500 ft 327 kts 77°
2026-05-07 19:18 10.54828 -67.80712 11100 ft 329 kts 77°
2026-05-07 19:18 10.55364 -67.78449 10769 ft 329 kts 78°
2026-05-07 19:18 10.55891 -67.76223 10597 ft 320 kts 78°
2026-05-07 19:18 10.56404 -67.74054 10460 ft 310 kts 78°
2026-05-07 19:19 10.56900 -67.71959 10329 ft 301 kts 78°
2026-05-07 19:19 10.57383 -67.69920 10209 ft 293 kts 78°
2026-05-07 19:19 10.57854 -67.67926 10073 ft 286 kts 78°
2026-05-07 19:19 10.58264 -67.65977 9870 ft 280 kts 85°
2026-05-07 19:20 10.58397 -67.64007 9564 ft 278 kts 90°
2026-05-07 19:20 10.58440 -67.62049 9256 ft 277 kts 91°
2026-05-07 19:20 10.58472 -67.60095 8949 ft 276 kts 91°
2026-05-07 19:20 10.58511 -67.58148 8648 ft 275 kts 90°
2026-05-07 19:21 10.58559 -67.56204 8344 ft 275 kts 90°
2026-05-07 19:21 10.58613 -67.54261 8040 ft 274 kts 90°
2026-05-07 19:21 10.58672 -67.52327 7744 ft 274 kts 90°
2026-05-07 19:21 10.58732 -67.50419 7443 ft 273 kts 90°
2026-05-07 19:22 10.58795 -67.48489 7141 ft 273 kts 89°
2026-05-07 19:22 10.58859 -67.46559 6842 ft 273 kts 90°
2026-05-07 19:22 10.58924 -67.44629 6538 ft 273 kts 89°
2026-05-07 19:22 10.58990 -67.42703 6228 ft 273 kts 90°
2026-05-07 19:23 10.59055 -67.40776 5918 ft 272 kts 89°
2026-05-07 19:23 10.59120 -67.38853 5610 ft 272 kts 89°
2026-05-07 19:23 10.59185 -67.36935 5304 ft 271 kts 89°
2026-05-07 19:23 10.59250 -67.35017 4998 ft 271 kts 88°
2026-05-07 19:24 10.59315 -67.33106 4705 ft 270 kts 88°
2026-05-07 19:24 10.59379 -67.31213 4562 ft 262 kts 88°
2026-05-07 19:24 10.59440 -67.29418 4486 ft 246 kts 88°
2026-05-07 19:24 10.59497 -67.27736 4390 ft 230 kts 88°
2026-05-07 19:25 10.59550 -67.26168 4285 ft 214 kts 88°